Погода в Пивденном

Украина / Харьковская область     49°52′35″N   36°03′51″E
темп.,
°C
ветер,
м/с
пор.,
м/с
влажн.,
%
обл.,
%
осадки,
мм/ч
давл.,
гПа
погр.,
м
20 сентября, пн
пн2000:00+15ююз238269 0.0 100793
03:00+13ююз2485100 0.1 100790
06:00+12юз599098 0.0 1007579
09:00+11юз586914 0.0 1008847
12:00+14зюз685297 0.0 10091514
15:00+13зюз575696 0.0 10101063
18:00+12зюз4760100 0.0 10101000
21:00+11зюз4879100 0.0 1011682
21 сентября, вт
вт2100:00+11зюз4784100 0.1 1012626
03:00+11зюз3583100 0.1 1012511
06:00+9з3590100 0.8 1012402
09:00+9з3490100 2.1 1013406
12:00+9зсз468158 0.8 1013533
15:00+11з566095 1.0 10131414
18:00+9з4664100 0.1 1014909
21:00+8з4674100 0.1 1014742
22 сентября, ср
ср2200:00+7з4684100 0.1 1014853
03:00+6зюз4687100 0.3 1013925
06:00+6з4686100 0.1 1013694
09:00+6з4686100 0.1 1013596
12:00+7з4583100 0.1 1014796
15:00+7з4582100 0.1 1014822
18:00+7з3481100 0.1 1014692
21:00+7зюз2383100 0.1 1015410
23 сентября, чт
чт2300:00+7зюз2283100 0.0 1015362
03:00+7зюз1283100 0.0 1014210
06:00+6ю1285100 0.2 1014304
09:00+6ююв2388100 1.0 1015396
12:00+7ююв2387100 0.5 1015485
15:00+7ююз1285100 0.8 1015404
18:00+7ссз1188100 0.4 1015205
21:00+7ссз2287100 0.6 1015154
24 сентября, пт
пт2400:00+7с1189100 0.2 1015104
03:00+7ссз1288100 0.3 1015117
06:00+7сз2288100 0.0 1015110
09:00+8зсз1277100 0.0 1015326
12:00+11юз235862 0.0 10131246
15:00+11юз4551100 0.1 10131384
18:00+10юз4759100 0.0 1013609
21:00+9ююз3866100 0.0 1013264